Flag for Norway Weather past 2 weeks in Fetsund, Norway

Now
56 °F

Cool.


Feels Like: 56 °F
Forecast: 51 / 58 °F
Wind: 2 mph from Southwest

Location: Oslo-Blindern

Current Time: Jul 7, 2015 at 7:18:22 AM

Latest Report: Jul 7, 2015 at 6:00 AM


Visibility: N/A

Pressure: 29.59 "Hg

Humidity: 69%

Dew point: 46 °F

Location of FetsundLocation

Historic Weather in Fetsund — Graph

°F

Fetsund temperature yesterday

Maximum temperature yesterday: 67 °F (at 2:00 PM)
Minimum temperature yesterday: 55 °F (at 7:00 PM)
Average temperature yesterday: 63 °F

Past Weeks' High & Low Weather Summary

 TemperatureHumidityPressure
High80 °F (Jul 5, 4:00 PM)98% (Jun 25, 2:00 AM)30.34 "Hg (Jun 25, 2:00 AM)
Low48 °F (Jun 26, 12:00 AM)31% (Jul 2, 4:00 PM)29.53 "Hg (Jul 6, 3:00 PM)
Average63 °F70%29.95 "Hg
* Reported Jun 22 4:00 AM — Jul 7 4:00 AM, Fetsund, Weather by CustomWeather, © 2015

Note: Actual official high and low records may vary slightly from our data, if they occured in-between our weather recording intervals... More about our weather records

Advertising

Fetsund weather history for previous 24 hours

 ConditionsComfort  
Time TempWeatherWind HumidityBarometerVisibility
4:00 AM
Tue, Jul 7
53 °FCool.3 mph85%29.58 "HgN/A
3:00 AM54 °FCool.3 mph83%29.57 "HgN/A
2:00 AM55 °FCool.5 mph81%29.58 "HgN/A
1:00 AM54 °FCool.5 mph88%29.57 "HgN/A
12:00 AM54 °FCool.3 mph92%29.58 "HgN/A
10:00 PM
Mon, Jul 6
55 °FCool.3 mph96%29.58 "HgN/A
9:00 PM56 °FCool.2 mph95%29.59 "HgN/A
8:00 PM55 °FSprinkles. Overcast.3 mph92%29.59 "Hg40 mi
7:00 PM55 °FCool.6 mph86%29.60 "HgN/A
6:00 PM60 °FCool.8 mph66%29.59 "HgN/A
5:00 PM64 °FOvercast.5 mph74%29.56 "Hg43 mi
4:00 PM60 °FCool.5 mph85%29.56 "HgN/A
3:00 PM67 °FMild.7 mph71%29.53 "HgN/A
2:00 PM67 °FOvercast.7 mph78%29.54 "Hg19 mi
1:00 PM63 °FMild.6 mph88%29.55 "HgN/A
12:00 PM64 °FMild.7 mph88%29.56 "HgN/A
11:00 AM65 °FMild.6 mph93%29.55 "HgN/A
10:00 AM66 °FMild.5 mph94%29.57 "HgN/A
9:00 AM65 °FMild.5 mph92%29.58 "HgN/A
8:00 AM65 °FLow clouds.3 mph91%29.61 "Hg16 mi
7:00 AM64 °FMild.6 mph91%29.63 "HgN/A
Weather by CustomWeather, © 2015

See weather overviewHow to use our weather pages